Torna al catalogo

OPS 7898

P/L 2

AttivoNavigazioneLEO
NORAD 5680·PAYLOAD·🇺🇸 United States

Lanciato Dec 14, 1971 da Vandenberg Space Force Base

Loading…

Prossimi Passaggi (prossime 24 ore)

TLE

AggiornatoSource: Space-Track

Epoca: Sep 14, 2026, 12:25 UTC

1 05680U 71110C   26257.51751307  .00000000  00000-0  52498-4 0  9992
2 05680  69.9900 178.5666 0005860  42.0481 318.1062 13.74764687360497

Traccia OPS 7898 in tempo reale con AllMySat

Download on the App Store